www.pogodaiklimat.ru

Погода и климат >> Архив погоды >> Австралия >> Квинсленд >> База ВВС Scherger


ПОГОДА на Базе ВВС Scherger

  • Прогноз погоды на Базе ВВС Scherger
  • Монитор погоды на Базе ВВС Scherger

АРХИВ ПОГОДЫ на Базе ВВС Scherger

Время (UTC), дата Ветер
(напр.,м/с)
 
Видим.   Явления Облачность Т
(С)
Тd
(С)
f
(%)
Тe
(С)
Тes
(С)
Комфортность P
(гПа)
Po
(гПа)
Тmin
(С)
Tmax
(С)
R
(мм)
R24
(мм)
S
(см)
11 15.01 штиль 0 н/о {туман} 10/10 600 м
[]
+25.0 +24.0 94 +34 +34 очень
душно
1008.4 1003.9
14 15.01 штиль 0 н/о 6/6 <50 м
[]
+24.9 +24.0 95 +34 +34 очень
душно
1009.0 1004.5 +32.6
17 15.01 штиль 0 н/о 9/0
[]
+24.6 +23.9 96 +34 +34 очень
душно
1006.2 1001.7
20 15.01 штиль 0 н/о н/о +24.2 +23.5 96 +33 +33 очень
душно
1007.6 1003.1
23 15.01 ЮВ 2 н/о 1/0
[]
+27.6 +24.0 81 +38 +47 очень
душно
1009.5 1005.0
02 16.01 СВ 2 н/о 10/10 600 м
[]
+30.2 +23.6 68 +41 +41 опасность
перегрева
1007.6 1003.1 +24.3
05 16.01 Ю 2 н/о {туман} 5/0
[]
+32.2 +24.3 63 +44 +55 опасность
перегрева
1004.7 1000.2
08 16.01 З 2 н/о ливневой дождь со снегом {туман} 10/10 100 м
[]
+24.8 +24.1 96 +34 +34 очень
душно
1006.0 1001.5
11 16.01 С 1 н/о в посл. час дождь {туман} 10/10 200 м
[]
+24.7 +24.2 97 +34 +34 очень
душно
1007.7 1003.2
14 16.01 В 1 н/о туман местами 10/10 100 м
[]
+25.2 +24.7 97 +35 +35 очень
душно
1008.5 1004.0 +32.9
17 16.01 штиль 0 н/о {туман} н/о +24.9 +24.4 97 +35 +35 очень
душно
1007.0 1002.5
20 16.01 штиль 0 н/о н/о +24.4 +23.9 97 +33 +33 очень
душно
1007.2 1002.7
23 16.01 В 3 н/о 6/6 300 м
[]
+28.2 +23.8 77 +39 +42 очень
душно
1009.0 1004.5
02 17.01 В 4 н/о 5/5 600 м
[]
+31.5 +24.4 66 +44 +51 опасность
перегрева
1007.4 1002.9 +24.3
05 17.01 В 4 н/о 9/9 600 м
[]
+29.8 +24.0 71 +41 +42 опасность
перегрева
1005.1 1000.6
08 17.01 штиль 0 н/о 9/9 600 м
[]
+29.5 +24.8 76 +42 +42 опасность
перегрева
1004.9 1000.4
11 17.01 штиль 0 н/о {туман} 5/0
[]
+26.5 +24.9 91 +38 +38 очень
душно
1007.4 1002.9
14 17.01 СВ 1 н/о н/о +25.6 +24.0 91 +35 +35 очень
душно
1007.8 1003.3 +32.5
17 17.01 СВ 1 н/о 10/10 1500 м
[]
+25.5 +22.6 84 +34 +34 очень
душно
1006.2 1001.7
20 17.01 ЮВ 2 н/о н/о +25.3 +23.2 88 +34 +34 очень
душно
1006.9 1002.4
23 17.01 В 3 н/о 1/0 2000 м
[]
+29.3 +24.0 73 +41 +47 опасность
перегрева
1008.4 1003.9
02 18.01 В 3 н/о {туман} 5/5 600 м
[]
+32.1 +23.6 61 +43 +53 опасность
перегрева
1008.0 1003.5 +24.9
05 18.01 СВ 3 н/о {туман} 1/1 1000 м
[]
+32.8 +23.2 57 +43 +55 опасность
перегрева
1006.0 1001.5
08 18.01 СВ 3 н/о 10/0 2000 м
[]
+30.4 +24.1 69 +42 +42 опасность
перегрева
1006.5 1002.0
11 18.01 штиль 0 н/о н/о +27.5 +24.4 83 +39 +39 очень
душно
1008.1 1003.6
14 18.01 штиль 0 н/о н/о +26.4 +24.4 89 +37 +37 очень
душно
1009.1 1004.6 +33.5
17 18.01 ЮВ 2 н/о 8/0
[]
+25.8 +24.0 90 +36 +36 очень
душно
1007.3 1002.8
20 18.01 ЮВ 2 н/о н/о +25.4 +24.0 92 +35 +35 очень
душно
1007.9 1003.4
23 18.01 В 4 н/о 3/3 300 м
[]
+29.5 +24.1 73 +41 +46 опасность
перегрева
1009.3 1004.8
02 19.01 С 4 н/о 10/10 1000 м
[]
+30.8 +23.7 66 +42 +42 опасность
перегрева
1008.5 1004.0 +25.5
05 19.01 С 1 н/о в посл. час дождь {туман} 9/9 300 м
[]
+26.6 +24.8 90 +38 +40 очень
душно
1006.4 1001.9
08 19.01 СВ 2 н/о туман 10/10 300 м
[]
+25.4 +23.8 91 +35 +35 очень
душно
1007.5 1003.0
11 19.01 ЮВ 2 н/о в посл. час дождь {туман} 10/10 600 м
[]
+25.3 +24.3 94 +35 +35 очень
душно
1009.8 1005.3
14 19.01 штиль 0 н/о {туман} 9/0
[]
+25.3 +24.4 95 +35 +35 очень
душно
1009.1 1004.6 +34.5
17 19.01 штиль 0 н/о {туман} 10/0
[]
+25.0 +24.3 96 +35 +35 очень
душно
1007.4 1002.9
20 19.01 штиль 0 н/о {туман} 5/0
[]
+24.8 +24.1 96 +34 +34 очень
душно
1007.7 1003.2
23 19.01 В 5 н/о {туман} н/о +28.2 +23.1 74 +38 +38 очень
душно
1009.3 1004.8
02 20.01 В 4 н/о 9/9 1000 м
[]
+31.6 +22.6 59 +41 +43 опасность
перегрева
1008.8 1004.3 +24.8
05 20.01 В 4 н/о 8/8 1000 м
[]
+33.2 +22.3 53 +42 +44 опасность
перегрева
1006.1 1001.6
08 20.01 ЮВ 3 н/о 9/0
[]
+30.6 +22.2 61 +40 +40 очень
душно
1005.9 1001.4
11 20.01 В 3 н/о 1/0
[]
+28.1 +21.1 66 +35 +35 очень
душно
1007.9 1003.4
14 20.01 В 3 н/о н/о +26.3 +22.4 79 +34 +34 очень
душно
1008.1 1003.6 +33.7
17 20.01 ЮВ 2 н/о 10/0
[]
+25.2 +22.7 86 +33 +33 очень
душно
1006.6 1002.1
20 20.01 ЮВ 2 н/о 10/0
[]
+24.9 +23.0 89 +33 +33 очень
душно
1006.9 1002.4
23 20.01 В 3 н/о 10/10 600 м
[]
+29.2 +23.2 70 +39 +39 очень
душно
1008.4 1003.9
02 21.01 В 4 н/о 10/10 1000 м
[]
+31.5 +22.2 58 +41 +41 опасность
перегрева
1007.3 1002.8 +24.7
05 21.01 В 4 н/о туман местами 10/10 200 м
[]
+25.4 +22.7 85 +33 +33 очень
душно
1007.0 1002.5
08 21.01 В 3 н/о {туман} 10/10 1000 м
[]
+26.1 +22.6 81 +34 +34 очень
душно
1006.8 1002.3
11 21.01 В 3 н/о {туман} 10/10 300 м
[]
+25.6 +23.1 86 +34 +34 очень
душно
1008.7 1004.2
14 21.01 В 2 н/о 10/10 1500 м
[]
+25.2 +22.3 84 +33 +33 очень
душно
1009.1 1004.6 +33.2
17 21.01 В 3 н/о 10/0
[]
+25.3 +22.8 86 +33 +33 очень
душно
1006.9 1002.4
20 21.01 В 2 н/о 9/9 300 м
[]
+25.3 +22.6 85 +33 +33 очень
душно
1007.6 1003.1
23 21.01 В 3 н/о 10/10 300 м
[]
+26.9 +23.4 81 +36 +36 очень
душно
1008.6 1004.1
02 22.01 СВ 3 н/о {туман} 10/10 600 м
[]
+30.0 +23.7 69 +41 +41 опасность
перегрева
1007.6 1003.1 +24.7
05 22.01 С 3 н/о в посл. час дождь {туман} 9/9 300 м
[]
+28.9 +24.5 77 +41 +42 опасность
перегрева
1005.5 1001.0
08 22.01 В 2 н/о туман местами 10/10 1000 м
[]
+26.6 +24.1 86 +37 +37 очень
душно
1006.8 1002.3

 

Местоположение метеостанции База ВВС Scherger (Квинсленд, Австралия): широта -12.62 долгота 142.09 высота над уровнем моря 39 м.

В архиве по умолчанию представлена погода на Базе ВВС Scherger за последнюю неделю. Архивные данные за месяц целиком и за предыдущие месяцы, начиная с января 2011 года, Вы можете получить, выбрав интересующий диапазон дат из раскрывающегося списка и нажав кнопку "Ввод!".


*Определитесь, кто Вы:
робот инопланетянин человек

Внимание! Время в таблицах - всемирное. Для получения местного времени необходимо прибавить поправку, которая равна 10 ч.

Смотрите также архив погоды в соседних городах и на ближайших метеорологических станциях:

Погода в Аэропорту Вейпа (Квинсленд, Австралия) (21 км)
Погода в Аэропорту Локхарт (Квинсленд, Австралия) (132 км)
Погода в Аэропорту Коэн (Квинсленд, Австралия) (170 км)
Погода на Острове Хорн (Квинсленд, Австралия) (228 км)
Погода на Острове Коконат (Квинсленд, Австралия) (305 км)
Погода в Кованьяме (Квинсленд, Австралия) (320 км)
Погода в Палмервилле (Квинсленд, Австралия) (432 км)
Погода на Мысе Флэттери (Квинсленд, Австралия) (436 км)
Погода в Куктауне (Квинсленд, Австралия) (459 км)
Погода в Мерауке (Индонезия) (498 км)

Пояснения к столбцам:

Ветер - указаны скорость ветра в м/с - средняя за 10 мин, порывы в срок и между сроками (в фигурных скобках) и направление, откуда дует ветер: С - северный, СВ - северо-восточный, В - восточный, ЮВ - юго-восточный, Ю - южный, ЮЗ - юго-западный, З - западный, СЗ - северо-западный.
Видимость - горизонтальная дальность видимости в метрах или километрах. При видимости от 1 до 10 км при отсутствии осадков обычно наблюдается дымка, при ухудшении видимости до 1 км и менее - туман. В сухую погоду видимость может ухудшаться дымом, пылью или мглою.
Явления - указаны атмосферные явления, наблюдавшиеся в срок или в последний час перед сроком; фигурными скобками обозначены явления, наблюдавшиеся между сроками (за 1-3 часа до срока); квадратными скобками обозначены град или гололедные отложения с указанием их диаметра в мм.
Облачность - указаны через наклонную черту общая и нижняя облачность в баллах и высота нижней границы облаков в метрах; квадратными скобками обозначены формы облаков: Ci - перистые, Cs - перисто-слоистые, Cc - перисто-кучевые, Ac - высококучевые, As - высокослоистые, Sc - слоисто-кучевые, Ns - слоисто-дождевые, Cu - кучевые, Cb - кучево-дождевые. Подробнее классификацию облаков см. в Атласе облаков (PDF).
T - Температура воздуха - температура, измеренная на высоте 2 м над землей.
Td - Температура точки росы - температура, при понижении до которой содержащийся в воздухе водяной пар достигнет насыщения.
f - Относительная влажность воздуха - влажноcть воздуха, измеренная на высоте 2 м над землей.
Te - Эффективная температура - температура, которую ощущает одетый по сезону человек в тени. Характеристика душности погоды. При расчете учитывается влияние влажности воздуха и скорости ветра на теплоощущения человека.
Tes - Эффективная температура на солнце - температура, которую ощущает человек, с поправкой на солнечный нагрев. Характеристика знойности погоды. Зависит от высоты солнца над горизонтом, облачности и скорости ветра. Ночью, в пасмурную погоду, а также при ветре 12 м/с и более поправка равна нулю.
P - Атмосферное давление - приведенное к уровню моря атмосферное давление.
Po - Атмосферное давление - измеренное на уровне метеостанции атмосферное давление.
Tmin - Минимальная температура - минимум температуры воздуха на высоте 2 м над землей.
Tmax - Максимальная температура - максимум температуры воздуха на высоте 2 м над землей.
R - Количество осадков - Количество выпавших осадков за период времени, мм. При наведении курсора мыши на число - период времени, за который выпало указанное количество осадков.
R24 - Количество осадков - Количество выпавших осадков за 24 часа, мм.
S - Снежный покров - Высота снежного покрова, см. При наведении курсора мыши на число - состояние снежного покрова и степень покрытия местности в баллах.